Facebook Twitter

Wetterstation Dahle

Messwerte
  Temperatur Wetter Niederschlag Feuchte Wind
Do, 08:30 Uhr 12.0 °C - - 84.0 % 6 km/h SW
Do, 08:15 Uhr 11.9 °C - - 85.0 % 7 km/h SW
Do, 08:00 Uhr 11.8 °C - - 85.0 % 8 km/h SW
Do, 07:45 Uhr 11.8 °C - - 85.0 % 6 km/h SW
Do, 07:30 Uhr 11.9 °C - - 84.0 % 8 km/h SW
Do, 07:15 Uhr 11.9 °C - - 84.0 % 6 km/h SW
Do, 07:00 Uhr 11.9 °C - - 86.0 % 5 km/h SW
Do, 06:45 Uhr 11.6 °C - - 87.0 % 5 km/h S
Do, 06:30 Uhr 11.4 °C - - 87.0 % 5 km/h SW
Do, 06:15 Uhr 11.4 °C - - 86.0 % 5 km/h S
Do, 06:00 Uhr 11.5 °C - - 86.0 % 6 km/h SW
Do, 05:45 Uhr 11.6 °C - - 86.0 % 6 km/h SW
Do, 05:30 Uhr 11.4 °C - - 87.0 % 5 km/h SW
Do, 05:15 Uhr 11.3 °C - - 87.0 % 5 km/h S
Do, 05:00 Uhr 11.3 °C - - 87.0 % 6 km/h S
Do, 04:45 Uhr 11.3 °C - - 87.0 % 8 km/h S
Do, 04:30 Uhr 11.3 °C - - 86.0 % 5 km/h S
Do, 04:15 Uhr 11.5 °C - - 87.0 % 7 km/h S
Do, 04:00 Uhr 11.3 °C - - 87.0 % 4 km/h S
Do, 03:45 Uhr 11.2 °C - - 87.0 % 6 km/h S

Alle Zeitangaben MESZ